Deer Park, WA

2:52 PM PDT on July 28, 2016 (GMT -0700)
Deer Park

Weather History for KDEW - November, 2013

Change the Weather History Date:

Monday, November 25, 2013

  Actual Average Record
Temperature  
Mean Temperature 30 °F 30 °F  
Max Temperature 42 °F 37 °F 53 °F (2004)
Min Temperature 18 °F 24 °F 8 °F (2010)
Degree Days  
Heating Degree Days 35 34  
Month to date heating degree days 752 758  
Since 1 July heating degree days 1732 1826  
Cooling Degree Days 0 0  
Month to date cooling degree days 0 0  
Year to date cooling degree days 310 187  
Moisture  
Dew Point 22 °F    
Average Humidity 72    
Maximum Humidity 92    
Minimum Humidity 51    
Precipitation  
Precipitation 0.00 in 0.12 in 0.44 in (1999)
Month to date precipitation 2.60 2.73  
Year to date precipitation 17.35 18.79  
Sea Level Pressure  
Sea Level Pressure 30.46 in    
Wind  
Wind Speed 3 mph (North)    
Max Wind Speed 7 mph    
Max Gust Speed 9 mph    
Visibility 10 miles    
Events      
T = Trace of Precipitation, MM = Missing Value Source: NWS Daily Summary

Daily Weather History Graph

Daily Weather History Graph

Search for Another Location

Airport or City:

Trip Planner

Search our weather history database for the weather conditions in past years. The results will help you decide how hot, cold, wet, or windy it might be!

Date:

Astronomy

Nov. 25, 2013 Rise Set
Actual Time 7:10 AM PST 4:02 PM PST
Civil Twilight 6:35 AM PST 4:37 PM PST
Nautical Twilight 5:57 AM PST 5:15 PM PST
Astronomical Twilight 5:20 AM PST 5:52 PM PST
Moon 11:51 PM PST (11/25) 12:12 PM PST (11/25)
Length of Visible Light 10h 01m
Length of Day
8h 51m
Waning Gibbous, 50% of the Moon is Illuminated
Nov 25
Waning Gibbous
Dec 2
New
Dec 9
First Quarter
Dec 17
Full
Dec 25
Last Quarter

Hourly Weather History & Observations

Time (PST) Temp. Windchill Dew Point Humidity Pressure Visibility Wind Dir Wind Speed Gust Speed Precip Events Conditions
12:53 AM 21.9 °F - 19.0 °F 89% 30.44 in 10.0 mi Calm Calm - N/A   Clear
1:53 AM 23.0 °F - 19.0 °F 85% 30.44 in 10.0 mi Calm Calm - N/A   Clear
2:53 AM 21.9 °F 17.2 °F 18.0 °F 85% 30.45 in 10.0 mi West 3.5 mph - N/A   Clear
3:53 AM 23.0 °F - 19.9 °F 88% 30.45 in 10.0 mi Calm Calm - N/A   Clear
4:53 AM 23.0 °F - 19.0 °F 85% 30.48 in 10.0 mi Calm Calm - N/A   Clear
5:53 AM 19.0 °F 13.9 °F 17.1 °F 92% 30.50 in 10.0 mi NW 3.5 mph - N/A   Clear
6:53 AM 19.9 °F - 18.0 °F 92% 30.50 in 10.0 mi Calm Calm - N/A   Clear
7:53 AM 19.9 °F - 17.1 °F 89% 30.51 in 10.0 mi Calm Calm - N/A   Clear
8:53 AM 30.0 °F 25.2 °F 24.1 °F 79% 30.51 in 10.0 mi North 4.6 mph - N/A   Clear
9:53 AM 35.1 °F 32.2 °F 25.0 °F 67% 30.51 in 10.0 mi NNE 3.5 mph - N/A   Partly Cloudy
10:53 AM 37.0 °F 34.5 °F 24.1 °F 59% 30.50 in 10.0 mi East 3.5 mph - N/A   Partly Cloudy
11:53 AM 39.0 °F 36.8 °F 25.0 °F 57% 30.48 in 10.0 mi NE 3.5 mph - N/A   Clear
12:53 PM 39.9 °F 37.8 °F 25.0 °F 55% 30.47 in 10.0 mi ENE 3.5 mph - N/A   Clear
1:53 PM 39.9 °F 36.7 °F 25.0 °F 55% 30.46 in 10.0 mi NE 4.6 mph - N/A   Clear
2:53 PM 41.0 °F 39.0 °F 25.0 °F 53% 30.45 in 10.0 mi NE 3.5 mph - N/A   Clear
3:53 PM 37.0 °F 34.5 °F 24.1 °F 59% 30.46 in 10.0 mi North 3.5 mph - N/A   Clear
4:53 PM 32.0 °F 28.7 °F 24.1 °F 73% 30.45 in 10.0 mi NE 3.5 mph - N/A   Clear
5:53 PM 32.0 °F 27.5 °F 24.1 °F 73% 30.45 in 10.0 mi North 4.6 mph - N/A   Clear
6:53 PM 30.9 °F 25.2 °F 24.1 °F 76% 30.45 in 10.0 mi NNW 5.8 mph - N/A   Clear
7:53 PM 30.0 °F 25.2 °F 24.1 °F 79% 30.45 in 10.0 mi NNW 4.6 mph - N/A   Clear
8:53 PM 30.0 °F 24.1 °F 23.0 °F 75% 30.44 in 10.0 mi NNW 5.8 mph - N/A   Clear
9:53 PM 28.9 °F 22.8 °F 23.0 °F 78% 30.44 in 10.0 mi NNW 5.8 mph - N/A   Clear
10:53 PM 28.0 °F 24.2 °F 23.0 °F 81% 30.43 in 10.0 mi North 3.5 mph - N/A   Clear
11:53 PM 28.0 °F - 23.0 °F 81% 30.42 in 10.0 mi Calm Calm - N/A   Clear